| time (UTC) | temp F | wind direction | speed knots | gust knots | rain 1hr in | rain 24hr in | rain mn in | humidity % | barometer mb |
| 20260903060057 | 77 | 150 | 0.9 | 2.6 | 0.00 | 0.00 | 0.00 | 85 | 1017.1 |
| 20260903055017 | 77 | 171 | 1.7 | 2.6 | 0.00 | 0.00 | 0.00 | 85 | 1017.1 |
| 20260903054017 | 77 | 177 | 1.7 | 2.6 | 0.00 | 0.00 | 0.00 | 85 | 1017.1 |
| 20260903053017 | 77 | 170 | 1.7 | 2.6 | 0.00 | 0.00 | 0.00 | 85 | 1017.1 |
| 20260903052017 | 77 | 172 | 1.7 | 2.6 | 0.00 | 0.00 | 0.00 | 85 | 1017.0 |
| 20260903051038 | 78 | 168 | 1.7 | 2.6 | 0.00 | 0.00 | 0.00 | 84 | 1017.0 |
| 20260903050038 | 78 | 175 | 1.7 | 3.5 | 0.00 | 0.00 | 0.00 | 84 | 1016.9 |
| 20260903045018 | 78 | 172 | 0.9 | 2.6 | 0.00 | 0.00 | 0.00 | 84 | 1016.8 |
| 20260903044018 | 78 | 186 | 0.9 | 2.6 | 0.00 | 0.00 | 0.00 | 84 | 1016.8 |
| 20260903043055 | 78 | 173 | 1.7 | 2.6 | 0.00 | 0.00 | 0.00 | 83 | 1016.7 |
| 20260903042016 | 78 | 176 | 0.9 | 2.6 | 0.00 | 0.00 | 0.00 | 83 | 1016.7 |
| 20260903041016 | 78 | 184 | 1.7 | 3.5 | 0.00 | 0.00 | 0.00 | 83 | 1016.6 |
| 20260903040019 | 78 | 181 | 1.7 | 3.5 | 0.00 | 0.00 | 0.00 | 83 | 1016.5 |
| 20260903035016 | 79 | 175 | 2.6 | 3.5 | 0.00 | 0.00 | 0.00 | 82 | 1016.3 |
| 20260903034016 | 79 | 170 | 1.7 | 3.5 | 0.00 | 0.00 | 0.00 | 82 | 1016.3 |
| 20260903033017 | 79 | 176 | 2.6 | 4.3 | 0.00 | 0.00 | 0.00 | 82 | 1016.5 |
| 20260903032016 | 79 | 175 | 2.6 | 4.3 | 0.00 | 0.00 | 0.00 | 82 | 1016.6 |
| 20260903031016 | 79 | 177 | 2.6 | 3.5 | 0.00 | 0.00 | 0.00 | 81 | 1016.7 |
| 20260903030037 | 79 | 177 | 1.7 | 4.3 | 0.00 | 0.00 | 0.00 | 81 | 1016.9 |
| 20260903025017 | 79 | 173 | 1.7 | 3.5 | 0.00 | 0.00 | 0.00 | 81 | 1017.0 |
| 20260903024037 | 79 | 176 | 1.7 | 3.5 | 0.00 | 0.00 | 0.00 | 81 | 1017.1 |
| 20260903023037 | 80 | 168 | 1.7 | 2.6 | 0.00 | 0.00 | 0.00 | 80 | 1017.2 |
| 20260903022018 | 80 | 175 | 1.7 | 3.5 | 0.00 | 0.00 | 0.00 | 80 | 1017.2 |
| 20260903021018 | 80 | 172 | 1.7 | 3.5 | 0.00 | 0.00 | 0.00 | 79 | 1017.2 |
| 20260903020018 | 80 | 174 | 1.7 | 3.5 | 0.00 | 0.00 | 0.00 | 79 | 1017.2 |
| 20260903015038 | 80 | 176 | 1.7 | 2.6 | 0.00 | 0.00 | 0.00 | 79 | 1017.2 |
| 20260903014018 | 81 | 178 | 1.7 | 3.5 | 0.00 | 0.00 | 0.00 | 78 | 1017.2 |
| 20260903013015 | 81 | 183 | 2.6 | 4.3 | 0.00 | 0.00 | 0.00 | 77 | 1017.1 |
| 20260903012015 | 81 | 179 | 2.6 | 5.2 | 0.00 | 0.00 | 0.00 | 77 | 1017.0 |
| 20260903011016 | 81 | 182 | 2.6 | 4.3 | 0.00 | 0.00 | 0.00 | 76 | 1017.0 |
| 20260903010016 | 81 | 178 | 2.6 | 4.3 | 0.00 | 0.00 | 0.00 | 76 | 1016.8 |
| 20260903005018 | 82 | 184 | 2.6 | 4.3 | 0.00 | 0.00 | 0.00 | 76 | 1016.8 |
| 20260903004016 | 82 | 177 | 2.6 | 4.3 | 0.00 | 0.00 | 0.00 | 76 | 1016.7 |
| 20260903003017 | 82 | 171 | 2.6 | 3.5 | 0.00 | 0.00 | 0.00 | 75 | 1016.7 |
| 20260903002017 | 82 | 175 | 1.7 | 3.5 | 0.00 | 0.00 | 0.00 | 74 | 1016.6 |
| 20260903001037 | 83 | 182 | 1.7 | 3.5 | 0.00 | 0.00 | 0.00 | 73 | 1016.6 |
| 20260903000017 | 84 | 186 | 1.7 | 2.6 | 0.00 | 0.00 | 0.00 | 71 | 1016.7 |
| 20260902235017 | 84 | 173 | 1.7 | 3.5 | 0.00 | 0.00 | 0.00 | 71 | 1016.6 |
| 20260902234018 | 85 | 182 | 1.7 | 3.5 | 0.00 | 0.00 | 0.00 | 69 | 1016.6 |
| 20260902233017 | 86 | 193 | 1.7 | 3.5 | 0.00 | 0.00 | 0.00 | 68 | 1016.6 |
| 20260902232018 | 87 | 194 | 1.7 | 3.5 | 0.00 | 0.01 | 0.00 | 68 | 1016.6 |
| 20260902231018 | 87 | 214 | 0.9 | 2.6 | 0.00 | 0.01 | 0.00 | 67 | 1016.6 |
| 20260902230018 | 88 | 199 | 1.7 | 5.2 | 0.00 | 0.01 | 0.00 | 66 | 1016.6 |
| 20260902225018 | 89 | 209 | 1.7 | 3.5 | 0.00 | 0.01 | 0.00 | 65 | 1016.6 |
| 20260902224015 | 89 | 203 | 2.6 | 4.3 | 0.00 | 0.01 | 0.00 | 65 | 1016.5 |
| 20260902223015 | 89 | 207 | 1.7 | 4.3 | 0.00 | 0.01 | 0.00 | 65 | 1016.6 |
| 20260902222016 | 90 | 220 | 1.7 | 5.2 | 0.00 | 0.01 | 0.00 | 64 | 1016.7 |
| 20260902221016 | 90 | 215 | 2.6 | 4.3 | 0.00 | 0.01 | 0.00 | 64 | 1016.7 |
| 20260902220016 | 90 | 208 | 2.6 | 5.2 | 0.00 | 0.01 | 0.00 | 63 | 1016.6 |
| 20260902215016 | 90 | 226 | 3.5 | 7.0 | 0.00 | 0.01 | 0.00 | 62 | 1016.7 |
| 20260902214036 | 90 | 214 | 3.5 | 7.0 | 0.00 | 0.01 | 0.00 | 62 | 1016.7 |
| 20260902213017 | 90 | 214 | 3.5 | 7.0 | 0.00 | 0.01 | 0.00 | 62 | 1016.6 |
| 20260902212037 | 91 | 243 | 2.6 | 8.7 | 0.00 | 0.01 | 0.00 | 63 | 1016.6 |
| 20260902211017 | 91 | 203 | 2.6 | 5.2 | 0.00 | 0.01 | 0.00 | 64 | 1016.8 |
| 20260902210017 | 91 | 211 | 2.6 | 4.3 | 0.00 | 0.01 | 0.00 | 63 | 1016.9 |
| 20260902205017 | 91 | 217 | 3.5 | 7.0 | 0.00 | 0.01 | 0.00 | 63 | 1017.0 |
| 20260902204017 | 90 | 220 | 2.6 | 5.2 | 0.00 | 0.01 | 0.00 | 65 | 1017.1 |
| 20260902203018 | 90 | 219 | 1.7 | 5.2 | 0.00 | 0.01 | 0.00 | 63 | 1017.2 |
| 20260902202039 | 91 | 208 | 3.5 | 7.0 | 0.00 | 0.01 | 0.00 | 61 | 1017.3 |
| 20260902201018 | 91 | 210 | 2.6 | 5.2 | 0.00 | 0.01 | 0.00 | 62 | 1017.4 |
| 20260902200018 | 91 | 212 | 3.5 | 7.8 | 0.00 | 0.01 | 0.00 | 62 | 1017.5 |
| 20260902195018 | 91 | 214 | 3.5 | 6.1 | 0.00 | 0.01 | 0.00 | 62 | 1017.5 |
| 20260902194035 | 91 | 262 | 2.6 | 7.0 | 0.00 | 0.01 | 0.00 | 62 | 1017.6 |
| 20260902193016 | 91 | 199 | 3.5 | 7.0 | 0.00 | 0.01 | 0.00 | 62 | 1017.8 |
| 20260902192015 | 91 | 203 | 3.5 | 6.1 | 0.00 | 0.01 | 0.00 | 63 | 1017.9 |
| 20260902191017 | 91 | 199 | 2.6 | 5.2 | 0.00 | 0.01 | 0.00 | 63 | 1018.0 |
| 20260902190018 | 90 | 198 | 4.3 | 6.1 | 0.00 | 0.01 | 0.00 | 64 | 1018.0 |
| 20260902185021 | 90 | 227 | 3.5 | 6.1 | 0.00 | 0.01 | 0.00 | 66 | 1018.1 |
| 20260902184020 | 90 | 207 | 2.6 | 5.2 | 0.00 | 0.01 | 0.00 | 66 | 1018.1 |
| 20260902183036 | 90 | 253 | 2.6 | 4.3 | 0.00 | 0.01 | 0.00 | 68 | 1018.3 |
| 20260902182017 | 90 | 227 | 3.5 | 6.1 | 0.00 | 0.01 | 0.00 | 68 | 1018.3 |
| 20260902181037 | 89 | 265 | 3.5 | 7.0 | 0.00 | 0.01 | 0.00 | 70 | 1018.4 |
| 20260902180017 | 89 | 208 | 2.6 | 6.1 | 0.00 | 0.01 | 0.00 | 71 | 1018.5 |
| 20260902175017 | 89 | 212 | 2.6 | 4.3 | 0.00 | 0.01 | 0.00 | 72 | 1018.6 |
| 20260902174022 | 88 | 209 | 3.5 | 5.2 | 0.00 | 0.01 | 0.00 | 73 | 1018.8 |
| 20260902173020 | 88 | 224 | 2.6 | 7.8 | 0.00 | 0.01 | 0.00 | 72 | 1019.0 |
| 20260902172018 | 87 | 249 | 1.7 | 4.3 | 0.00 | 0.01 | 0.00 | 74 | 1019.1 |
| 20260902171018 | 87 | 219 | 3.5 | 6.1 | 0.00 | 0.01 | 0.00 | 73 | 1019.1 |
| 20260902170038 | 87 | 206 | 3.5 | 7.0 | 0.00 | 0.01 | 0.00 | 73 | 1019.1 |
| 20260902164017 | 86 | 215 | 3.5 | 6.1 | 0.00 | 0.01 | 0.00 | 73 | 1019.3 |
| 20260902163016 | 86 | 218 | 3.5 | 6.1 | 0.00 | 0.01 | 0.00 | 75 | 1019.2 |
| 20260902162016 | 86 | 186 | 3.5 | 7.0 | 0.00 | 0.01 | 0.00 | 76 | 1019.2 |
| 20260902161056 | 85 | 191 | 4.3 | 7.0 | 0.00 | 0.01 | 0.00 | 75 | 1019.2 |
| 20260902160016 | 85 | 199 | 3.5 | 6.1 | 0.00 | 0.01 | 0.00 | 75 | 1019.2 |
| 20260902155016 | 85 | 197 | 3.5 | 6.1 | 0.00 | 0.01 | 0.00 | 75 | 1019.2 |
| 20260902154017 | 85 | 216 | 2.6 | 5.2 | 0.00 | 0.01 | 0.00 | 75 | 1019.2 |
| 20260902153019 | 85 | 232 | 1.7 | 4.3 | 0.00 | 0.01 | 0.00 | 75 | 1019.2 |
| 20260902152017 | 84 | 228 | 1.7 | 5.2 | 0.00 | 0.01 | 0.00 | 75 | 1019.2 |
| 20260902151017 | 84 | 200 | 2.6 | 7.0 | 0.00 | 0.01 | 0.00 | 76 | 1019.2 |
| 20260902150017 | 83 | 191 | 4.3 | 7.0 | 0.00 | 0.01 | 0.00 | 77 | 1019.2 |
| 20260902145017 | 82 | 200 | 3.5 | 5.2 | 0.00 | 0.01 | 0.00 | 78 | 1019.1 |
| 20260902144017 | 82 | 175 | 3.5 | 7.8 | 0.00 | 0.01 | 0.00 | 80 | 1019.0 |
| 20260902143038 | 81 | 197 | 3.5 | 7.0 | 0.00 | 0.03 | 0.00 | 79 | 1019.0 |
| 20260902142018 | 81 | 186 | 3.5 | 6.1 | 0.00 | 0.07 | 0.00 | 80 | 1019.0 |
| 20260902141018 | 81 | 194 | 3.5 | 5.2 | 0.00 | 0.10 | 0.00 | 80 | 1019.0 |
| 20260902140018 | 80 | 204 | 2.6 | 4.3 | 0.00 | 0.10 | 0.00 | 81 | 1019.0 |
| 20260902135015 | 79 | 201 | 2.6 | 5.2 | 0.00 | 0.13 | 0.00 | 83 | 1019.1 |
| 20260902134036 | 78 | 185 | 2.6 | 3.5 | 0.00 | 0.13 | 0.00 | 84 | 1019.1 |
| 20260902133036 | 78 | 187 | 2.6 | 5.2 | 0.00 | 0.13 | 0.00 | 85 | 1019.1 |
| 20260902132016 | 78 | 192 | 2.6 | 4.3 | 0.00 | 0.13 | 0.00 | 85 | 1019.1 |
| 20260902131016 | 78 | 185 | 2.6 | 3.5 | 0.00 | 0.13 | 0.00 | 85 | 1019.1 |
| 20260902130016 | 77 | 169 | 2.6 | 4.3 | 0.00 | 0.13 | 0.00 | 86 | 1019.0 |
| 20260902125016 | 77 | 179 | 3.5 | 6.1 | 0.00 | 0.13 | 0.00 | 87 | 1019.1 |
| 20260902124016 | 76 | 184 | 2.6 | 4.3 | 0.00 | 0.13 | 0.00 | 88 | 1018.9 |
| 20260902123017 | 76 | 179 | 2.6 | 6.1 | 0.00 | 0.13 | 0.00 | 88 | 1019.0 |
| 20260902122017 | 76 | 192 | 2.6 | 4.3 | 0.00 | 0.14 | 0.00 | 88 | 1018.9 |
| 20260902121017 | 75 | 180 | 3.5 | 6.1 | 0.00 | 0.14 | 0.00 | 89 | 1018.9 |
| 20260902120017 | 74 | 184 | 3.5 | 5.2 | 0.00 | 0.14 | 0.00 | 90 | 1019.0 |
| 20260902115017 | 74 | 185 | 2.6 | 4.3 | 0.00 | 0.14 | 0.00 | 90 | 1018.9 |
| 20260902114018 | 74 | 178 | 2.6 | 4.3 | 0.00 | 0.14 | 0.00 | 91 | 1018.8 |
| 20260902113017 | 73 | 177 | 2.6 | 4.3 | 0.00 | 0.14 | 0.00 | 91 | 1018.6 |
| 20260902112018 | 73 | 173 | 2.6 | 4.3 | 0.00 | 0.14 | 0.00 | 91 | 1018.5 |
| 20260902111018 | 73 | 163 | 2.6 | 3.5 | 0.00 | 0.14 | 0.00 | 91 | 1018.4 |
| 20260902110100 | 73 | 174 | 2.6 | 3.5 | 0.00 | 0.14 | 0.00 | 92 | 1018.4 |
| 20260902105015 | 73 | 172 | 2.6 | 3.5 | 0.00 | 0.14 | 0.00 | 92 | 1018.3 |
| 20260902104015 | 73 | 174 | 2.6 | 3.5 | 0.00 | 0.14 | 0.00 | 92 | 1018.3 |
| 20260902103016 | 73 | 172 | 1.7 | 3.5 | 0.00 | 0.14 | 0.00 | 92 | 1018.3 |
| 20260902102016 | 72 | 161 | 1.7 | 2.6 | 0.00 | 0.14 | 0.00 | 93 | 1018.3 |
| 20260902101016 | 72 | 156 | 0.9 | 2.6 | 0.00 | 0.14 | 0.00 | 92 | 1018.3 |
| 20260902100016 | 73 | 167 | 0.0 | 1.7 | 0.00 | 0.14 | 0.00 | 92 | 1018.3 |
| 20260902095016 | 73 | 154 | 0.0 | 0.9 | 0.00 | 0.14 | 0.00 | 92 | 1018.3 |
| 20260902094017 | 73 | 127 | 0.9 | 1.7 | 0.00 | 0.14 | 0.00 | 92 | 1018.3 |
| 20260902093016 | 73 | 160 | 0.9 | 1.7 | 0.00 | 0.14 | 0.00 | 92 | 1018.3 |
| 20260902092017 | 73 | 168 | 0.0 | 1.7 | 0.00 | 0.14 | 0.00 | 92 | 1018.3 |
| 20260902091037 | 73 | 150 | 0.0 | 0.9 | 0.00 | 0.14 | 0.00 | 92 | 1018.2 |
| 20260902090017 | 73 | 186 | 0.9 | 2.6 | 0.00 | 0.14 | 0.00 | 92 | 1018.2 |
| 20260902085017 | 73 | 163 | 0.9 | 2.6 | 0.00 | 0.14 | 0.00 | 92 | 1018.3 |
| 20260902084018 | 73 | 162 | 0.0 | 1.7 | 0.00 | 0.14 | 0.00 | 92 | 1018.3 |
| 20260902083038 | 73 | 144 | 0.0 | 1.7 | 0.00 | 0.14 | 0.00 | 92 | 1018.2 |
| 20260902082026 | 73 | 143 | 0.0 | 0.9 | 0.00 | 0.14 | 0.00 | 92 | 1018.2 |
| 20260902081015 | 74 | 179 | 0.0 | 0.9 | 0.00 | 0.14 | 0.00 | 91 | 1018.2 |
| 20260902080016 | 74 | 132 | 0.0 | 1.7 | 0.00 | 0.14 | 0.00 | 92 | 1018.2 |
| 20260902075036 | 74 | 138 | 0.9 | 1.7 | 0.00 | 0.14 | 0.00 | 92 | 1018.0 |
| 20260902074016 | 74 | 130 | 0.9 | 1.7 | 0.00 | 0.14 | 0.00 | 92 | 1018.0 |
| 20260902073016 | 73 | 119 | 0.9 | 1.7 | 0.00 | 0.14 | 0.00 | 92 | 1018.1 |
| 20260902072017 | 74 | 156 | 0.0 | 1.7 | 0.00 | 0.14 | 0.00 | 91 | 1018.1 |
| 20260902071017 | 74 | 120 | 0.9 | 1.7 | 0.00 | 0.14 | 0.00 | 91 | 1018.0 |
| 20260902070022 | 74 | 125 | 0.9 | 1.7 | 0.00 | 0.14 | 0.00 | 90 | 1018.1 |
| 20260902065018 | 75 | 155 | 0.9 | 1.7 | 0.00 | 0.14 | 0.00 | 90 | 1018.1 |
| 20260902064018 | 75 | 129 | 0.9 | 2.6 | 0.00 | 0.14 | 0.00 | 90 | 1018.1 |
| 20260902063017 | 75 | 134 | 1.7 | 2.6 | 0.00 | 0.14 | 0.00 | 90 | 1018.2 |
| 20260902062038 | 75 | 163 | 0.0 | 1.7 | 0.00 | 0.14 | 0.00 | 90 | 1018.3 |
| 20260902061018 | 75 | 154 | 0.0 | 1.7 | 0.00 | 0.14 | 0.00 | 90 | 1018.3 |